STARLINK-34784

Last updated on Tue Sep 16 2025 00:02:08 GMT+0000 (Coordinated Universal Time)

1 65458U 25195A 25257.77722489 -.00585219 00000+0 -35716-2 0 9992 2 65458 53.1562 1.4857 0000233 94.8309 265.2739 15.78252659 2970
UTC large
Height (km)
Speed (km/s)
/
Latitude / Longitude
Inclination (degrees)
Orbital Period (minutes)
Azimuth
Elevation
Range (km)
Doppler Factor

Next 0 passes for location: London (51.5072 / 0.1276)

Sorry there are no passes over London.